Weather History for CYZR - October, 2013

Change the Weather History Date:

Tuesday, October 15, 2013

  Actual Average Record
Temperature  
Mean Temperature 49 °F -  
Max Temperature 62 °F 61 °F 82 °F (1968)
Min Temperature 38 °F 43 °F 29 °F (1972)
Degree Days  
Heating Degree Days 16    
Moisture  
Dew Point 49 °F    
Average Humidity 87    
Maximum Humidity 100    
Minimum Humidity 27    
Precipitation  
Precipitation 0.00 in - - ()
Sea Level Pressure  
Sea Level Pressure 30.08 in    
Wind  
Wind Speed 5 mph ()    
Max Wind Speed 15 mph    
Max Gust Speed 23 mph    
Visibility 7.3 miles    
Events Rain    
Averages and records for this station are not official NWS values.
T = Trace of Precipitation, MM = Missing Value Source: Averaged Metar Reports

Daily Weather History Graph

Daily Weather History Graph

Search for Another Location

Airport or City:

Trip Planner

Search our weather history database for the weather conditions in past years. The results will help you decide how hot, cold, wet, or windy it might be!

Date:

Astronomy

Oct. 15, 2013 Rise Set
Actual Time 7:43 AM EDT 6:46 PM EDT
Civil Twilight 7:14 AM EDT 7:14 PM EDT
Nautical Twilight 6:41 AM EDT 7:47 PM EDT
Astronomical Twilight 6:08 AM EDT 8:20 PM EDT
Moon 4:54 PM EDT (10/15) 3:59 AM EDT (10/15)
Length of Visible Light 12h 00m
Length of Day
11h 03m
Waxing Gibbous, 87% of the Moon is Illuminated
Oct 15
Waxing Gibbous
Oct 18
Full
Oct 26
Last Quarter
Nov 3
New
Nov 10
First Quarter

Hourly Weather History & Observations

Time (EDT) Temp. Windchill Dew Point Humidity Pressure Visibility Wind Dir Wind Speed Gust Speed Precip Events Conditions
12:00 AM 48.2 °F - 44.6 °F 87% 30.28 in 9.0 mi ESE 3.5 mph - N/A   Clear
1:00 AM 46.4 °F - 42.8 °F 87% 30.28 in 9.0 mi Calm Calm - N/A   Clear
2:00 AM 45 °F - 44 °F 94% 30.19 in - Calm Calm - -  
2:00 AM 42.8 °F 40.1 °F 42.8 °F 100% 30.26 in 9.0 mi SE 4.6 mph - N/A   Clear
3:00 AM 42.8 °F 41.1 °F 41.0 °F 93% 30.24 in 9.0 mi SSE 3.5 mph - N/A   Clear
4:00 AM 42.8 °F 41.1 °F 42.8 °F 100% 30.21 in 9.0 mi SE 3.5 mph - N/A   Clear
5:00 AM 39.2 °F - 39.2 °F 100% 30.22 in 9.0 mi ESE 2.3 mph - N/A   Clear
5:04 AM 39.2 °F - 39.2 °F 100% 30.22 in 4.0 mi Calm Calm - N/A   Clear
5:06 AM 41.0 °F - 39.2 °F 93% 30.22 in 2.2 mi ESE 2.3 mph - N/A   Clear
5:15 AM 41.0 °F - 41.0 °F 100% 30.22 in 3.0 mi SSE 2.3 mph - N/A   Clear
5:16 AM 41.0 °F - 41.0 °F 100% 30.22 in 6.0 mi SSE 2.3 mph - N/A   Clear
5:39 AM 41.0 °F 39.0 °F 41.0 °F 100% 30.22 in 5.0 mi ESE 3.5 mph - N/A   Clear
5:49 AM 41.0 °F 39.0 °F 41.0 °F 100% 30.21 in 6.0 mi ESE 3.5 mph - N/A   Clear
6:00 AM 41.0 °F - 39.2 °F 93% 30.21 in 8.0 mi SE 2.3 mph - N/A   Clear
7:00 AM 42.8 °F 41.1 °F 41.0 °F 93% 30.19 in 9.0 mi ESE 3.5 mph - N/A   Clear
8:00 AM 47 °F - 43 °F 82% 30.27 in - NNW 4.6 mph - -  
8:00 AM 42.8 °F 41.1 °F 41.0 °F 93% 30.19 in 8.0 mi ESE 3.5 mph - N/A   Clear
9:00 AM 46.4 °F 43.5 °F 44.6 °F 93% 30.17 in 9.0 mi SE 5.8 mph - N/A   Clear
10:00 AM 51.8 °F - 50.0 °F 94% 30.16 in 9.0 mi SE 9.2 mph - N/A   Clear
11:00 AM 57.2 °F - 51.8 °F 82% 30.14 in 9.0 mi SE 8.1 mph - N/A   Partly Cloudy
12:00 PM 60.8 °F - 51.8 °F 72% 30.11 in 9.0 mi South 6.9 mph - N/A   Scattered Clouds
1:00 PM 64.4 °F - 55.4 °F 73% 30.08 in 9.0 mi South 11.5 mph - N/A   Mostly Cloudy
2:00 PM 56 °F - 31 °F 27% 30.27 in - NNW 4.6 mph - -  
2:00 PM 66.2 °F - 53.6 °F 64% 30.03 in 9.0 mi South 15.0 mph - N/A   Scattered Clouds
3:00 PM 66.2 °F - 53.6 °F 64% 30.02 in 9.0 mi South 10.4 mph - N/A   Mostly Cloudy
4:00 PM 64.4 °F - 53.6 °F 68% 30.01 in 9.0 mi South 10.4 mph 18.4 mph N/A   Overcast
5:00 PM 62.6 °F - 55.4 °F 77% 29.98 in 9.0 mi South 10.4 mph - N/A   Mostly Cloudy
6:00 PM 62.6 °F - 55.4 °F 77% 29.96 in 9.0 mi South 11.5 mph - N/A   Overcast
6:09 PM 62.6 °F - 55.4 °F 77% 29.94 in 9.0 mi SSE 13.8 mph - N/A   Overcast
7:00 PM 60.8 °F - 55.4 °F 82% 29.93 in 9.0 mi South 15.0 mph 21.9 mph N/A   Overcast
7:03 PM 60.8 °F - 55.4 °F 82% 29.93 in 9.0 mi SSE 13.8 mph 21.9 mph N/A   Overcast
7:39 PM 60.8 °F - 55.4 °F 82% 29.93 in 9.0 mi South 9.2 mph 18.4 mph N/A   Overcast
8:00 PM 38 °F - 35 °F 84% 30.29 in - SSE 2.3 mph - -  
8:00 PM 60.8 °F - 55.4 °F 82% 29.92 in 9.0 mi South 13.8 mph - N/A   Overcast
9:00 PM 60.8 °F - 57.2 °F 88% 29.90 in 9.0 mi SSE 12.7 mph 23.0 mph N/A Rain Light Rain
9:41 PM 60.8 °F - 59.0 °F 94% 29.89 in 6.0 mi South 11.5 mph - N/A   Overcast
9:55 PM 60.8 °F - 59.0 °F 94% 29.88 in 5.0 mi South 11.5 mph - N/A   Overcast
10:00 PM 60.8 °F - 59.0 °F 94% 29.88 in 5.0 mi South 10.4 mph - N/A   Overcast
10:12 PM 60.8 °F - 59.0 °F 94% 29.87 in 5.0 mi South 12.7 mph - N/A Rain Light Rain
10:32 PM 60.8 °F - 59.0 °F 94% 29.87 in 4.0 mi South 13.8 mph - N/A   Overcast
10:42 PM 60.8 °F - 59.0 °F 94% 29.86 in 4.0 mi South 10.4 mph 17.3 mph N/A   Overcast
10:47 PM 60.8 °F - 59.0 °F 94% 29.86 in 4.0 mi South 10.4 mph - N/A   Overcast
11:00 PM 60.8 °F - 59.0 °F 94% 29.85 in 4.0 mi South 10.4 mph - N/A   Overcast
11:45 PM 62.6 °F - 59.0 °F 88% 29.84 in 6.0 mi South 11.5 mph - N/A   Overcast